Wind_Speed
30 29 29 29 29 29 29 27 26 25 25 24 23 23 24 25 26 27 28 29 31 32 33 34 35 36 38 40 42 44 46 49 51 53 55 56 58 59 60 61 63 63 63
32 31 31 32 32 32 33 32 30 30 29 28 27 27 27 28 29 30 31 32 34 35 36 37 39 40 42 43 45 48 50 53 56 57 58 58 59 61 61 61 60 60 60
34 33 33 34 35 35 35 35 35 35 33 31 31 31 32 33 32 33 34 36 37 38 39 40 42 44 45 47 49 52 54 57 59 60 60 60 60 61 60 59 57 54 53
36 34 34 35 36 37 37 38 38 37 36 34 34 34 35 35 36 38 39 40 41 42 44 45 46 48 50 51 53 55 57 59 61 61 61 61 61 60 58 56 52 49 48
38 36 35 37 39 39 40 40 40 40 38 37 37 38 38 39 40 42 44 46 46 47 49 50 50 51 52 54 56 58 60 61 61 61 61 61 60 58 55 52 50 49 49
38 38 38 39 40 41 41 42 42 41 40 40 40 40 41 42 45 47 49 50 50 51 53 53 53 53 54 56 58 60 60 61 61 61 60 59 57 55 52 51 51 51 51
36 37 37 37 39 40 41 41 41 40 41 41 42 42 42 44 47 48 49 51 53 54 54 54 53 53 55 58 59 60 60 60 60 60 58 57 55 54 53 53 54 55 55
33 33 33 34 35 37 38 39 39 40 40 41 41 42 44 46 46 47 50 51 53 54 53 52 52 54 57 58 59 60 60 59 59 58 56 55 54 55 55 56 58 58 59
31 30 30 31 32 33 34 35 37 38 39 40 41 42 43 45 47 50 52 53 55 53 52 53 54 55 56 57 58 59 59 58 58 56 55 55 55 56 57 59 61 63 63
28 28 28 29 30 32 33 35 36 38 39 40 42 43 45 47 50 51 53 53 52 52 52 53 53 54 55 56 57 57 57 57 56 56 56 56 57 59 60 62 63 65 66
27 27 28 29 30 31 33 35 36 37 39 41 43 45 46 49 50 51 52 51 51 52 52 52 53 54 55 56 56 56 56 56 56 57 58 58 60 61 62 62 63 63 63
29 29 30 31 32 33 35 37 38 39 41 43 45 47 49 51 53 52 51 51 52 52 52 53 53 54 54 54 54 54 55 56 57 58 59 60 61 61 60 59 58 56 55
32 32 34 35 36 37 38 40 41 42 44 46 48 51 52 53 52 52 52 52 52 51 52 52 53 53 53 53 53 54 56 57 58 59 60 59 58 57 55 52 50 48 47
35 36 37 38 38 40 42 43 44 47 49 50 51 52 53 52 52 53 52 52 51 51 51 52 51 51 52 52 54 56 57 58 58 58 57 56 53 50 47 44 43 41 40
39 40 41 43 44 45 46 48 49 50 51 51 52 53 53 53 53 53 51 50 50 50 50 50 50 50 52 53 55 56 57 57 56 54 52 50 47 44 42 40 38 37 34
45 46 46 47 48 49 50 51 51 51 51 50 50 52 55 55 53 50 47 47 48 48 48 48 49 51 53 54 55 55 55 54 53 50 46 44 42 40 39 37 34 31 28
49 49 49 49 49 50 50 50 49 49 49 49 52 55 56 53 48 46 46 46 46 46 47 48 50 52 53 53 53 53 51 50 47 44 42 40 39 37 34 31 27 24 21
48 48 47 47 47 47 47 47 47 49 50 51 54 55 52 47 44 43 44 44 44 46 47 49 50 51 51 51 50 48 47 45 42 40 38 35 33 30 27 22 19 16 13
45 43 42 42 42 42 42 43 45 49 52 54 54 49 44 41 41 41 42 43 45 47 48 49 49 48 48 47 45 43 41 39 38 36 33 30 26 23 18 14 11 9 6
41 40 39 38 38 39 40 41 45 50 51 49 44 41 39 39 39 40 42 44 46 47 47 47 46 45 43 41 39 37 36 34 33 31 28 23 18 14 10 7 4 2 1
38 36 36 35 35 37 40 43 46 47 43 39 37 37 37 38 39 41 43 45 46 46 45 44 43 40 38 35 33 32 31 29 26 24 19 14 9 5 3 2 3 4 5
32 31 31 32 34 37 39 40 40 37 35 34 34 35 36 38 40 42 43 44 44 43 42 40 37 34 32 30 29 28 26 23 20 16 12 7 4 4 6 7 7 7 7
26 27 28 29 32 34 33 32 30 29 30 31 33 35 37 40 41 42 43 43 42 39 37 34 32 30 28 26 25 24 22 19 15 10 7 5 7 9 9 9 10 10 9
23 24 25 27 27 25 23 24 25 26 28 30 33 36 38 40 41 42 42 40 37 34 30 28 27 25 24 22 20 19 19 16 10 7 6 8 11 12 12 12 11 10 9
21 21 19 16 15 16 19 21 23 25 29 32 35 37 39 41 41 40 38 35 30 26 24 23 22 21 19 17 16 15 13 10 6 6 8 10 12 12 12 12 11 10 9
11 9 9 11 13 15 18 20 24 27 30 33 35 38 39 40 38 36 32 27 23 21 19 19 19 17 15 13 13 11 8 6 6 8 10 12 13 13 12 12 11 11 10
Wind_Direction
273 273 270 270 271 273 274 277 279 279 279 279 282 284 287 290 291 293 293 293 294 294 292 291 290 290 292 293 295 297 299 300 301 299 297 294 291 288 285 282 280 278 277
272 269 268 268 268 269 270 273 276 276 276 278 282 286 288 290 291 292 292 292 292 292 292 292 291 291 292 294 296 298 299 299 300 299 297 294 291 289 287 284 281 279 277
270 268 267 266 267 268 270 272 275 277 278 280 284 287 290 292 291 293 293 294 293 292 292 293 293 293 294 296 297 298 299 299 299 298 296 293 291 289 288 286 282 279 277
271 269 267 267 268 269 270 273 276 279 281 285 288 290 292 293 293 295 295 295 294 294 295 295 295 295 296 297 298 298 298 299 298 297 296 293 291 289 287 285 282 279 277
271 271 268 268 269 270 272 275 278 280 282 285 287 290 291 292 294 297 297 295 295 296 297 297 296 297 297 298 297 298 298 298 297 296 295 293 291 289 286 283 281 279 277
271 271 270 270 271 272 274 276 279 281 283 285 288 290 291 293 295 297 297 297 297 298 298 297 297 297 297 297 297 297 298 297 296 295 294 293 291 288 286 283 282 280 279
273 274 273 273 273 274 275 277 278 280 283 286 288 290 291 294 297 298 298 298 299 300 299 298 297 297 297 297 297 297 297 296 296 295 293 292 290 288 286 284 283 282 281
276 276 275 275 274 274 275 276 278 280 283 286 288 291 295 296 298 300 301 300 300 301 300 299 298 297 297 297 297 297 296 296 295 294 292 291 290 289 287 286 285 283 282
276 278 278 277 276 276 277 278 279 280 284 287 289 293 297 299 300 302 302 301 300 300 299 300 299 298 297 297 296 296 296 296 294 293 292 291 290 289 288 287 286 285 284
277 278 278 278 278 279 279 280 282 283 286 288 292 295 298 299 301 302 302 301 301 300 301 301 299 298 297 297 297 297 296 295 294 294 293 292 292 291 290 289 289 288 287
280 280 279 279 280 280 281 283 284 286 287 290 294 297 298 300 301 303 303 302 302 302 302 301 300 299 298 297 297 296 296 295 295 295 294 294 293 293 292 291 291 289 288
281 282 282 281 281 282 284 287 288 288 289 292 295 297 298 299 301 302 303 302 302 302 301 300 299 299 298 298 297 297 297 297 297 296 296 296 296 295 294 293 292 291 289
283 284 285 285 286 287 287 288 289 290 292 295 295 297 297 299 300 302 303 301 301 301 300 300 300 299 299 299 299 299 299 299 299 299 299 299 298 296 295 294 292 291 291
284 285 286 286 287 288 288 288 290 292 294 295 295 296 297 297 299 300 299 300 301 301 301 301 301 300 301 301 301 301 302 302 302 302 301 300 299 297 295 294 293 293 293
282 284 285 286 287 288 288 289 291 292 293 294 295 295 294 295 296 297 297 299 301 301 302 302 302 302 303 304 304 304 304 304 304 304 302 301 299 298 296 295 295 294 293
282 284 285 286 286 287 287 288 289 291 292 293 293 292 292 292 293 296 299 300 301 302 302 303 304 305 306 306 306 307 307 307 306 305 303 302 300 299 298 296 295 294 292
282 283 283 284 284 285 286 287 288 289 289 288 288 288 288 290 294 299 300 301 302 303 305 306 307 307 308 309 309 309 309 308 307 306 305 303 302 300 298 297 295 293 292
279 280 280 281 281 283 284 285 284 284 283 283 286 287 289 294 300 301 302 303 304 306 308 309 309 310 311 312 311 310 309 309 309 309 307 305 304 302 300 297 295 294 291
277 278 278 279 280 280 280 280 279 279 280 282 284 288 294 300 302 302 304 306 308 309 310 310 311 313 313 313 312 311 311 312 312 312 311 309 306 303 299 296 294 293 286
276 277 278 279 279 279 278 276 275 275 277 282 289 296 300 302 304 306 308 310 311 311 312 312 314 314 314 313 313 314 315 316 316 316 315 313 309 306 304 302 298 288 177
275 275 276 277 276 275 274 272 272 273 280 290 298 301 304 306 309 310 311 312 312 313 313 314 315 316 316 317 318 319 320 321 321 321 322 322 323 326 345 53 97 106 107
272 272 273 274 271 269 268 270 273 282 292 299 302 305 308 310 311 312 312 313 314 315 316 317 318 319 321 322 323 323 324 327 329 332 336 348 22 67 89 96 97 101 98
268 267 267 268 266 266 270 278 288 296 301 305 308 311 312 313 313 313 314 315 316 317 318 319 321 323 325 325 326 327 330 335 340 348 8 51 82 93 94 93 97 98 98
264 263 263 265 267 273 285 296 301 305 309 312 314 315 315 315 315 315 315 316 317 319 320 322 324 326 327 328 330 331 334 341 353 20 63 88 96 97 96 96 97 95 96
261 261 264 274 286 300 304 307 311 315 317 318 318 318 317 317 317 317 319 319 320 321 322 325 327 329 331 333 335 336 342 353 21 68 93 100 101 100 98 96 94 92 94
260 271 288 300 307 312 316 319 321 322 322 321 321 320 320 319 320 321 322 323 324 325 326 328 330 333 336 341 346 350 4 29 73 96 105 107 105 102 99 96 92 91 93
Height
5862 5862 5861 5860 5859 5858 5856 5855 5853 5851 5848 5846 5845 5843 5841 5839 5837 5834 5832 5829 5827 5824 5820 5817 5814 5810 5807 5803 5799 5795 5790 5785 5779 5774 5768 5762 5756 5750 5744 5739 5734 5730 5726
5856 5856 5855 5854 5853 5852 5850 5848 5846 5844 5841 5839 5837 5835 5833 5830 5829 5826 5824 5821 5818 5815 5811 5808 5804 5801 5797 5793 5788 5783 5777 5771 5766 5760 5753 5747 5741 5733 5728 5723 5718 5713 5710
5850 5849 5848 5847 5846 5845 5843 5841 5839 5836 5834 5831 5829 5827 5825 5822 5820 5817 5815 5812 5809 5805 5802 5798 5794 5789 5784 5780 5775 5770 5764 5757 5750 5744 5738 5731 5725 5718 5712 5707 5702 5698 5695
5842 5842 5841 5840 5839 5837 5836 5833 5831 5828 5826 5824 5821 5818 5816 5813 5811 5808 5805 5802 5799 5795 5791 5787 5782 5777 5771 5766 5761 5755 5749 5742 5735 5728 5721 5715 5708 5702 5698 5692 5688 5685 5682
5833 5834 5834 5833 5831 5830 5828 5825 5823 5820 5818 5815 5813 5810 5807 5804 5801 5798 5795 5791 5788 5783 5779 5774 5769 5764 5758 5752 5746 5740 5734 5727 5720 5712 5706 5699 5692 5686 5682 5679 5675 5672 5669
5825 5825 5825 5825 5823 5821 5819 5817 5814 5812 5809 5807 5804 5801 5798 5795 5791 5788 5784 5779 5775 5771 5766 5760 5755 5750 5744 5738 5732 5725 5718 5711 5704 5697 5690 5684 5678 5672 5668 5664 5661 5658 5656
5817 5817 5816 5816 5814 5812 5810 5808 5805 5803 5800 5798 5795 5792 5789 5785 5781 5777 5772 5767 5762 5757 5753 5747 5742 5736 5730 5723 5716 5710 5703 5696 5689 5683 5676 5669 5664 5659 5654 5650 5646 5643 5640
5808 5808 5807 5806 5805 5803 5801 5799 5796 5794 5791 5788 5785 5782 5778 5775 5770 5765 5760 5755 5749 5744 5739 5733 5727 5722 5715 5708 5702 5695 5688 5681 5674 5668 5662 5656 5650 5645 5640 5635 5631 5627 5624
5800 5800 5798 5797 5796 5794 5792 5790 5787 5785 5782 5779 5776 5772 5768 5763 5758 5753 5748 5742 5737 5731 5725 5720 5713 5707 5701 5694 5687 5680 5673 5666 5660 5653 5648 5642 5636 5631 5625 5620 5614 5609 5605
5792 5791 5790 5788 5787 5785 5783 5780 5778 5775 5772 5769 5765 5761 5757 5752 5747 5741 5736 5730 5724 5718 5712 5706 5699 5693 5687 5680 5673 5666 5659 5652 5646 5639 5634 5628 5621 5615 5609 5603 5597 5590 5585
5784 5783 5782 5780 5778 5776 5774 5771 5768 5765 5762 5759 5755 5750 5746 5741 5735 5729 5724 5718 5712 5705 5699 5692 5686 5680 5673 5666 5659 5651 5644 5638 5632 5625 5619 5612 5605 5599 5591 5585 5578 5572 5565
5776 5774 5773 5771 5769 5767 5764 5761 5758 5755 5751 5748 5744 5739 5734 5729 5723 5717 5711 5705 5699 5692 5686 5680 5673 5666 5659 5652 5645 5638 5631 5624 5617 5610 5603 5596 5588 5581 5574 5567 5560 5554 5548
5767 5765 5763 5761 5759 5757 5754 5751 5748 5744 5741 5737 5732 5727 5722 5716 5711 5705 5699 5693 5687 5680 5674 5667 5660 5653 5646 5639 5632 5624 5617 5609 5602 5594 5587 5579 5571 5564 5557 5551 5545 5539 5534
5757 5755 5754 5751 5749 5746 5743 5740 5737 5733 5729 5725 5720 5715 5709 5704 5698 5693 5687 5681 5675 5668 5662 5654 5647 5640 5633 5626 5618 5610 5602 5595 5587 5578 5570 5563 5555 5549 5543 5537 5532 5527 5522
5747 5745 5743 5741 5738 5736 5733 5729 5725 5721 5717 5713 5707 5702 5697 5691 5686 5680 5674 5668 5662 5656 5649 5642 5634 5627 5619 5612 5604 5596 5588 5580 5572 5563 5555 5548 5541 5536 5530 5526 5521 5516 5512
5735 5734 5732 5729 5727 5724 5721 5717 5713 5709 5705 5700 5695 5689 5684 5679 5673 5668 5662 5656 5650 5643 5636 5629 5621 5614 5606 5598 5590 5581 5573 5565 5557 5550 5542 5535 5529 5524 5519 5514 5510 5507 5504
5723 5721 5719 5717 5715 5712 5709 5705 5701 5697 5693 5688 5683 5678 5672 5667 5661 5656 5651 5644 5638 5631 5624 5616 5608 5600 5592 5585 5576 5568 5560 5552 5544 5537 5531 5524 5518 5513 5509 5505 5502 5499 5497
5710 5709 5707 5705 5703 5700 5697 5694 5690 5686 5682 5677 5672 5667 5661 5655 5650 5645 5639 5632 5626 5619 5611 5604 5596 5587 5579 5572 5564 5556 5548 5540 5533 5527 5520 5514 5509 5504 5500 5497 5495 5494 5493
5698 5697 5695 5694 5692 5689 5686 5684 5680 5676 5672 5667 5661 5656 5650 5644 5639 5634 5627 5621 5614 5606 5599 5592 5584 5576 5568 5561 5553 5546 5538 5531 5524 5517 5511 5506 5501 5497 5494 5492 5491 5491 5490
5686 5685 5684 5683 5681 5679 5676 5673 5670 5666 5661 5656 5650 5645 5640 5635 5629 5622 5616 5609 5602 5595 5588 5581 5574 5566 5559 5552 5544 5537 5530 5523 5516 5510 5504 5499 5496 5493 5491 5490 5490 5489 5490
5675 5675 5674 5673 5672 5669 5667 5664 5660 5655 5650 5645 5641 5636 5630 5624 5618 5611 5605 5598 5591 5584 5578 5571 5565 5558 5550 5543 5536 5530 5523 5517 5511 5506 5500 5496 5493 5491 5490 5490 5490 5490 5491
5666 5666 5665 5664 5662 5660 5657 5654 5649 5645 5641 5637 5632 5627 5620 5614 5608 5601 5594 5588 5581 5574 5568 5561 5555 5549 5543 5536 5530 5524 5518 5513 5508 5503 5499 5496 5493 5492 5492 5492 5492 5493 5493
5658 5657 5657 5656 5654 5652 5649 5646 5642 5638 5634 5629 5624 5617 5611 5605 5598 5591 5585 5578 5572 5565 5559 5553 5548 5542 5537 5531 5526 5520 5515 5510 5506 5502 5499 5497 5495 5495 5495 5495 5496 5496 5497
5652 5651 5650 5649 5647 5644 5642 5639 5636 5632 5626 5621 5615 5609 5602 5595 5589 5582 5575 5569 5563 5557 5552 5547 5542 5537 5532 5527 5523 5518 5513 5509 5505 5503 5501 5499 5499 5499 5499 5499 5500 5500 5500
5647 5646 5645 5644 5642 5640 5637 5634 5629 5624 5619 5613 5607 5600 5593 5587 5580 5573 5567 5560 5555 5551 5547 5542 5538 5534 5529 5525 5520 5516 5512 5509 5506 5504 5503 5503 5503 5503 5503 5503 5504 5504 5504
5643 5643 5642 5641 5638 5635 5632 5628 5624 5618 5613 5606 5600 5593 5586 5578 5571 5565 5560 5554 5550 5546 5542 5538 5535 5530 5527 5523 5519 5516 5512 5509 5508 5507 5506 5506 5506 5507 5507 5507 5508 5508 5507